Temp
22 22 22 22 22 22 21 21 21 21 20 20 21 21 21 21 20 19 19 19 19 18 18 19 19 18 18 18 18 17 17 17 16 16 16 16 16 16 16 16 16 16
22 22 22 22 22 22 22 21 21 21 20 20 20 21 21 21 20 19 19 19 19 19 19 19 19 19 18 19 19 18 18 18 17 16 16 16 16 16 16 16 16 17
22 22 22 22 22 22 22 21 21 21 21 20 21 21 20 20 20 19 19 19 19 19 19 19 19 19 19 19 19 19 18 18 18 16 16 16 16 16 16 16 16 16
22 22 22 22 23 22 22 21 21 21 21 21 21 20 20 20 19 19 19 18 19 19 19 19 20 20 20 20 19 19 18 18 18 17 16 16 16 16 16 16 16 16
22 22 22 22 23 22 22 22 22 22 22 22 21 20 20 20 19 19 19 19 19 19 19 19 20 20 20 19 19 19 19 18 18 18 17 16 16 16 16 16 16 16
22 21 22 22 22 22 22 22 22 22 22 22 22 21 20 20 20 20 20 20 20 20 20 20 20 20 20 19 19 19 19 19 19 18 18 17 16 16 16 16 16 16
22 21 22 22 22 22 22 23 22 22 22 22 22 21 21 21 21 21 20 20 20 20 20 20 21 20 20 20 19 19 18 18 18 18 18 18 17 17 16 16 15 16
22 21 22 22 22 22 22 23 22 22 22 22 22 21 21 21 21 21 21 21 20 20 20 21 21 21 21 20 19 18 18 18 18 17 17 18 18 18 18 17 16 17
22 22 22 22 22 22 22 23 22 22 23 23 22 22 21 21 21 22 21 21 21 21 20 21 21 21 21 21 20 19 19 19 18 18 18 18 19 19 19 18 17 17
22 22 22 22 22 22 23 23 23 23 23 23 23 22 21 21 22 22 21 21 21 21 21 21 21 21 21 20 20 20 19 19 19 18 18 18 18 19 19 18 18 18
23 23 22 23 23 23 23 24 23 23 23 24 23 22 22 22 22 21 21 21 21 21 21 21 21 21 21 20 20 21 20 19 19 19 18 17 17 18 18 18 18 18
23 23 23 23 23 23 23 24 23 23 23 24 24 23 22 22 22 22 21 21 20 20 21 21 21 21 21 21 21 21 20 20 19 19 18 17 17 17 17 17 17 17
24 24 24 24 23 23 23 23 23 23 22 23 23 23 23 23 22 22 22 21 20 20 20 21 21 21 21 21 21 21 20 20 20 19 18 17 17 17 17 17 17 17
24 25 25 25 24 23 23 23 23 23 23 22 22 22 22 23 22 22 21 21 20 20 20 20 21 21 21 21 21 21 20 20 20 19 18 18 17 17 17 17 17 17
25 25 26 25 24 23 23 23 23 23 23 22 22 22 21 21 22 22 21 21 20 20 19 20 20 20 21 21 21 21 20 20 20 19 19 18 17 16 17 17 17 16
24 24 25 25 24 24 24 24 23 23 23 23 22 22 21 21 21 21 21 20 20 19 19 19 19 20 21 21 21 21 20 20 19 19 18 18 17 16 16 17 17 16
24 24 24 24 24 24 24 24 24 23 23 23 23 22 22 21 21 20 20 20 19 19 19 19 19 19 20 21 21 21 20 19 19 19 18 17 16 16 16 16 16 16
25 24 24 23 24 24 24 24 23 23 23 23 22 22 22 21 21 20 20 20 19 19 18 19 19 19 20 20 21 20 20 19 18 18 18 17 16 16 16 16 15 16
25 24 24 23 23 23 23 23 23 23 23 22 22 22 22 21 21 21 20 20 19 18 18 18 19 19 19 20 20 20 19 19 18 18 17 17 16 15 15 15 15 15
25 24 24 23 23 23 23 23 22 22 22 22 22 22 22 21 21 21 20 20 19 19 18 18 18 18 19 19 19 19 19 18 18 17 17 16 16 16 16 16 16 16
25 24 23 23 22 22 22 22 22 22 22 22 22 22 22 21 21 21 20 20 20 19 18 18 18 18 19 19 19 19 19 18 18 17 16 15 16 16 16 16 16 16
24 23 23 22 23 23 23 23 22 22 22 22 22 21 21 21 20 20 20 20 20 19 18 18 17 18 18 18 18 18 18 18 17 17 16 16 16 16 16 16 16 16
24 23 23 23 23 23 23 22 22 22 22 21 21 20 20 20 20 20 19 19 19 19 18 18 17 17 18 18 18 18 18 17 17 17 16 16 16 16 16 16 16 16
23 23 23 23 23 23 23 22 22 22 21 21 20 19 19 19 19 18 18 17 17 17 17 17 17 17 18 18 18 18 18 17 17 16 16 16 16 16 15 15 15 15
24 24 24 23 23 23 22 22 22 22 21 20 19 19 18 18 18 18 17 17 16 16 16 16 16 17 17 17 17 17 17 17 16 16 16 16 16 16 15 15 15 15
24 23 23 23 23 22 22 22 22 21 21 20 19 18 18 18 18 18 17 17 17 16 16 15 15 16 16 16 16 16 16 16 16 16 16 16 15 15 15 15 14 14
Height
1517 1520 1522 1524 1526 1528 1530 1532 1533 1535 1536 1537 1538 1539 1541 1542 1543 1543 1544 1544 1546 1546 1547 1548 1549 1549 1550 1551 1553 1554 1554 1554 1556 1557 1558 1559 1559 1559 1560 1561 1562 1563
1514 1517 1519 1521 1523 1525 1528 1529 1531 1532 1534 1535 1536 1537 1538 1540 1541 1541 1541 1542 1543 1544 1545 1546 1547 1548 1548 1549 1550 1551 1552 1553 1554 1555 1557 1558 1558 1559 1559 1560 1561 1561
1511 1514 1516 1518 1520 1523 1525 1527 1529 1530 1532 1533 1534 1535 1536 1537 1538 1539 1539 1540 1541 1542 1543 1544 1545 1546 1547 1547 1547 1548 1549 1551 1552 1553 1555 1556 1557 1558 1558 1559 1560 1560
1508 1510 1513 1515 1517 1520 1523 1525 1526 1527 1529 1530 1531 1532 1533 1534 1536 1537 1538 1538 1539 1540 1541 1542 1543 1544 1545 1545 1546 1547 1548 1549 1550 1551 1553 1554 1555 1557 1557 1558 1558 1558
1505 1507 1510 1512 1515 1517 1520 1522 1523 1524 1525 1527 1528 1529 1531 1532 1533 1534 1535 1536 1537 1538 1539 1540 1541 1542 1543 1544 1545 1545 1546 1547 1548 1549 1550 1551 1553 1554 1556 1556 1556 1556
1501 1504 1506 1509 1511 1514 1517 1518 1519 1520 1522 1524 1525 1527 1528 1529 1530 1530 1532 1533 1534 1536 1537 1538 1539 1540 1542 1543 1543 1544 1544 1545 1546 1546 1547 1548 1550 1552 1553 1554 1554 1554
1498 1501 1503 1506 1508 1511 1513 1514 1516 1517 1519 1521 1522 1523 1524 1525 1527 1528 1529 1530 1532 1533 1534 1535 1537 1538 1539 1540 1541 1542 1543 1543 1544 1545 1545 1546 1547 1548 1550 1552 1552 1552
1495 1497 1500 1502 1505 1507 1509 1510 1512 1514 1516 1518 1519 1520 1521 1522 1524 1525 1526 1527 1529 1530 1531 1532 1534 1535 1536 1537 1539 1540 1541 1542 1542 1543 1543 1543 1543 1544 1546 1548 1549 1549
1491 1494 1496 1499 1501 1503 1505 1506 1508 1511 1513 1514 1516 1517 1518 1519 1520 1522 1523 1524 1525 1527 1528 1529 1531 1532 1533 1534 1536 1537 1538 1539 1540 1540 1541 1541 1540 1541 1542 1544 1546 1546
1488 1490 1492 1495 1497 1499 1501 1502 1504 1507 1509 1511 1513 1514 1514 1515 1517 1519 1520 1521 1522 1523 1524 1526 1527 1528 1530 1531 1532 1534 1535 1537 1538 1538 1540 1540 1540 1540 1540 1541 1543 1544
1484 1486 1488 1490 1492 1494 1496 1499 1501 1503 1505 1507 1510 1511 1511 1512 1514 1515 1516 1517 1517 1519 1520 1522 1523 1525 1526 1527 1529 1531 1532 1534 1535 1536 1537 1539 1539 1539 1539 1540 1541 1541
1480 1482 1484 1485 1488 1490 1493 1495 1497 1499 1501 1503 1505 1507 1507 1508 1509 1511 1512 1513 1514 1515 1517 1518 1520 1521 1523 1524 1526 1528 1529 1531 1532 1533 1534 1536 1537 1537 1537 1538 1539 1539
1474 1477 1479 1481 1484 1487 1490 1492 1494 1496 1497 1498 1501 1503 1504 1504 1505 1506 1508 1509 1510 1512 1513 1515 1516 1518 1520 1521 1523 1525 1526 1528 1529 1530 1531 1533 1534 1535 1535 1536 1536 1537
1470 1472 1474 1477 1480 1483 1487 1489 1490 1493 1494 1495 1497 1499 1501 1501 1502 1503 1504 1505 1507 1509 1510 1512 1513 1514 1516 1518 1520 1521 1523 1524 1526 1527 1528 1530 1531 1532 1533 1533 1534 1535
1466 1468 1471 1474 1477 1480 1483 1485 1487 1490 1492 1493 1493 1495 1498 1499 1499 1500 1501 1502 1504 1506 1507 1508 1509 1510 1512 1514 1516 1518 1519 1521 1522 1524 1525 1526 1528 1529 1530 1531 1531 1532
1462 1465 1468 1471 1474 1476 1478 1481 1484 1486 1489 1490 1491 1492 1495 1497 1498 1497 1498 1499 1501 1502 1504 1505 1506 1507 1509 1511 1513 1514 1516 1517 1519 1520 1522 1523 1524 1526 1527 1528 1528 1529
1459 1462 1464 1467 1470 1473 1475 1478 1481 1483 1486 1488 1489 1490 1493 1495 1496 1496 1496 1497 1498 1499 1500 1502 1503 1504 1506 1509 1511 1511 1513 1514 1515 1517 1518 1520 1521 1522 1524 1525 1526 1526
1456 1458 1461 1464 1467 1470 1472 1475 1478 1481 1484 1486 1488 1489 1491 1493 1494 1494 1493 1494 1495 1496 1497 1499 1500 1501 1503 1507 1508 1509 1511 1512 1513 1514 1515 1516 1518 1519 1521 1522 1524 1524
1453 1455 1458 1461 1464 1467 1470 1473 1476 1479 1481 1484 1485 1487 1489 1490 1491 1492 1492 1492 1492 1493 1494 1495 1496 1498 1501 1504 1505 1507 1509 1510 1511 1512 1513 1513 1515 1516 1518 1519 1520 1522
1450 1452 1455 1458 1461 1464 1468 1470 1473 1476 1478 1480 1482 1484 1486 1487 1488 1489 1489 1489 1490 1490 1491 1492 1493 1495 1498 1501 1502 1504 1506 1507 1509 1510 1510 1512 1513 1514 1515 1515 1516 1518
1446 1450 1453 1456 1459 1462 1465 1468 1470 1472 1475 1477 1478 1481 1483 1483 1484 1485 1486 1486 1487 1487 1488 1490 1490 1491 1495 1498 1500 1502 1504 1505 1506 1507 1508 1510 1511 1511 1512 1513 1513 1514
1443 1447 1450 1453 1456 1459 1462 1464 1467 1469 1471 1473 1475 1477 1478 1479 1481 1482 1483 1484 1485 1485 1486 1488 1488 1489 1492 1496 1497 1499 1500 1502 1504 1504 1505 1506 1507 1509 1510 1511 1511 1511
1440 1444 1447 1450 1453 1456 1459 1461 1463 1465 1467 1469 1471 1473 1475 1476 1478 1479 1481 1482 1483 1483 1484 1485 1486 1487 1489 1492 1494 1495 1497 1499 1500 1501 1502 1503 1504 1506 1508 1508 1507 1508
1438 1442 1445 1449 1452 1454 1456 1458 1460 1462 1464 1466 1468 1470 1472 1474 1475 1477 1478 1479 1480 1481 1481 1483 1484 1484 1486 1488 1490 1492 1494 1496 1497 1498 1499 1501 1502 1504 1505 1504 1502 1502
1436 1440 1443 1446 1449 1452 1454 1456 1458 1460 1462 1464 1467 1470 1472 1474 1474 1475 1476 1477 1478 1479 1479 1480 1481 1482 1482 1485 1487 1489 1491 1493 1494 1495 1496 1498 1500 1501 1501 1499 1497 1497
1435 1438 1440 1443 1446 1449 1452 1454 1455 1457 1460 1462 1465 1468 1471 1473 1474 1474 1474 1475 1476 1477 1477 1478 1479 1479 1480 1482 1484 1486 1488 1490 1492 1492 1493 1495 1496 1497 1497 1495 1494 1494
Wind_Speed
32 30 29 28 26 24 23 23 21 20 20 20 19 19 18 17 15 16 16 13 13 16 17 16 14 13 14 16 19 18 14 12 11 9 9 10 10 9 9 9 7 8
32 31 30 30 28 26 24 23 22 22 22 20 20 19 19 17 17 18 17 15 15 15 15 14 12 13 14 14 16 19 18 14 14 11 9 10 11 10 10 8 6 6
33 32 32 31 30 28 27 25 24 23 22 22 21 20 18 17 17 19 18 17 17 16 15 14 12 12 14 14 14 17 17 14 15 14 10 10 11 11 10 8 7 6
34 33 33 32 31 30 29 27 26 25 24 23 23 21 20 18 17 19 20 21 19 17 15 15 13 12 13 15 15 16 16 14 14 14 13 11 11 11 12 11 12 12
35 34 33 33 32 31 31 30 29 28 26 25 25 24 23 21 21 22 23 23 21 19 17 16 14 13 14 16 16 16 17 15 14 14 15 14 13 12 13 13 14 15
36 35 34 33 32 31 32 32 32 31 29 27 26 26 25 25 26 26 26 25 23 21 20 18 16 15 15 17 18 18 17 15 14 14 14 14 14 14 12 11 11 12
37 36 35 34 33 32 33 34 34 32 31 29 28 28 28 28 28 28 27 26 25 23 22 19 17 16 16 18 19 18 17 16 14 13 12 11 12 13 13 13 14 13
38 37 36 35 34 33 34 35 35 34 32 30 30 30 31 31 30 29 28 27 26 24 23 21 18 18 18 18 19 19 17 16 16 15 14 14 12 12 13 15 16 15
38 37 37 36 36 35 35 36 36 35 34 33 32 32 33 33 32 30 29 29 28 26 25 24 21 20 20 19 18 18 17 17 17 17 18 18 15 13 13 14 15 15
39 38 37 37 37 37 37 37 37 37 36 35 34 34 35 35 34 32 31 32 31 29 28 27 25 23 22 21 18 17 17 17 17 19 21 21 17 14 14 14 15 15
40 39 38 38 39 39 38 38 38 37 37 36 35 35 36 36 35 34 35 35 34 33 31 29 28 26 25 24 20 17 17 17 18 19 21 21 18 15 14 15 15 15
42 41 41 40 40 39 39 39 38 37 37 37 37 37 38 37 37 37 37 37 37 35 33 31 29 28 27 26 23 19 18 18 20 21 21 21 19 17 16 16 16 16
43 43 43 42 41 39 38 38 39 38 37 37 38 38 39 39 39 39 38 38 38 37 35 33 31 30 29 28 25 21 20 20 22 22 22 23 22 20 18 18 18 18
44 44 44 43 42 40 39 38 38 38 37 37 37 38 39 40 40 39 39 38 39 38 37 35 34 32 30 29 27 24 22 22 23 23 23 23 24 22 20 19 18 17
42 43 43 43 42 41 40 40 39 38 38 38 38 37 37 36 37 39 39 38 38 38 38 37 36 34 32 30 29 27 25 24 24 24 23 24 24 23 20 20 19 18
41 42 43 43 43 42 42 42 40 39 39 39 39 38 36 35 35 37 38 37 38 38 39 39 38 36 34 31 30 29 27 25 25 24 24 24 24 23 21 21 20 20
40 40 41 42 43 43 43 42 41 40 39 39 39 38 37 34 34 36 37 36 37 39 39 39 38 38 36 31 31 31 29 26 25 24 24 25 25 24 23 21 20 20
41 40 40 40 41 42 43 42 41 40 39 38 38 36 35 34 34 35 36 36 36 37 38 38 39 39 36 33 32 32 29 26 25 25 26 26 26 25 24 22 22 21
42 40 39 39 39 40 40 40 40 40 39 38 37 36 34 34 34 36 37 37 36 35 36 37 39 38 35 34 33 32 30 27 25 26 27 27 25 25 24 23 22 21
42 40 39 38 37 37 37 37 38 38 38 37 38 37 36 36 36 36 37 37 37 36 35 35 37 37 34 33 33 33 31 28 25 26 27 25 24 24 25 24 23 23
41 40 38 37 36 35 34 34 34 34 35 35 35 35 35 36 37 37 38 39 39 38 36 35 36 36 34 33 33 33 32 30 26 26 26 25 24 24 24 24 23 24
41 40 39 38 36 34 32 31 31 30 31 30 30 30 32 34 35 36 37 39 38 38 37 35 35 36 34 33 32 32 33 31 28 27 28 29 28 25 23 24 25 25
42 41 40 37 35 33 31 30 30 29 28 28 28 29 29 29 31 32 32 34 36 37 37 36 35 35 35 34 33 32 33 32 27 26 29 32 32 28 25 26 28 28
41 40 38 35 32 31 29 27 27 27 28 28 27 25 22 21 23 23 23 26 29 32 34 34 33 34 35 34 32 30 31 31 28 26 27 30 32 32 29 29 31 30
39 37 35 33 30 28 24 22 21 22 23 23 21 19 18 17 18 18 18 20 21 22 24 26 28 31 33 32 30 29 29 29 27 26 25 26 29 32 33 33 34 31
36 34 32 30 27 24 23 21 20 18 19 19 18 18 18 18 18 17 18 19 18 17 18 20 23 26 28 28 28 27 26 25 25 25 24 24 27 33 36 35 29 23
Wind_Direction
215 215 214 212 212 211 211 215 216 207 206 214 217 217 224 225 218 211 217 228 218 206 212 224 226 216 203 198 189 186 204 207 189 202 219 208 196 187 196 207 211 216
213 213 213 213 212 211 211 213 214 211 207 210 220 223 224 221 211 212 219 223 221 216 219 223 221 214 209 209 202 200 210 207 187 194 215 215 205 195 200 207 214 234
211 211 213 213 213 211 210 209 211 216 212 212 223 225 218 213 208 210 214 220 224 223 223 223 218 214 212 212 207 203 210 209 193 190 204 225 221 203 201 210 220 237
211 211 213 214 213 211 209 209 211 216 217 216 219 220 215 211 210 208 208 215 225 224 222 222 219 214 212 214 212 205 206 206 197 192 195 215 230 215 206 208 211 214
211 210 212 214 213 211 209 211 214 217 219 218 217 218 216 211 212 214 214 218 224 224 223 223 221 214 211 214 214 208 205 203 198 194 194 205 221 223 215 213 215 214
210 210 212 213 213 211 210 211 216 219 220 221 220 219 218 215 218 223 225 226 226 225 225 223 220 216 212 212 214 211 207 203 200 198 197 200 210 219 221 221 230 229
210 210 212 213 212 211 211 213 216 219 220 222 222 222 222 221 224 228 230 230 229 227 227 225 220 218 215 212 212 212 206 202 201 199 203 205 205 213 219 219 229 236
211 211 212 213 211 209 212 215 216 218 220 222 223 226 227 227 228 231 233 233 232 230 228 227 221 217 218 217 214 212 206 203 201 200 210 220 216 216 221 220 224 229
209 211 213 214 212 211 214 219 219 219 222 224 224 226 229 231 233 235 235 234 235 233 230 228 223 217 217 219 219 216 210 207 206 206 213 222 222 219 221 220 222 223
208 211 215 216 216 216 219 223 223 225 226 227 226 224 227 232 235 237 237 236 235 234 232 230 226 220 216 218 224 223 217 215 215 214 218 223 223 220 219 218 218 216
210 212 215 218 219 219 222 225 226 228 229 230 227 224 226 233 236 236 236 235 235 235 235 233 229 225 220 219 225 229 224 224 224 221 223 226 226 224 221 220 219 215
212 213 216 220 221 219 221 225 225 226 229 232 231 227 228 234 237 237 236 236 235 234 236 235 232 229 225 223 227 230 227 226 225 224 226 229 229 227 223 222 221 217
213 215 217 220 220 216 217 221 223 224 226 230 232 229 231 235 237 237 238 237 236 234 235 235 233 232 229 226 228 228 225 224 222 223 226 228 229 228 225 225 224 220
215 218 219 220 219 215 214 217 220 221 222 225 227 228 230 234 237 239 238 237 236 235 234 234 232 232 231 228 228 227 223 221 221 224 228 229 230 228 225 225 225 223
215 218 220 220 218 216 215 216 218 219 219 223 227 227 226 227 234 240 240 238 236 233 232 233 232 232 232 232 230 227 224 221 220 224 230 231 230 228 225 223 221 219
215 217 218 218 217 218 219 219 218 218 219 222 226 228 225 222 227 236 240 239 237 233 231 232 233 234 235 236 234 231 226 222 220 222 229 232 228 226 225 223 220 217
215 216 216 216 216 219 221 221 220 220 220 222 226 229 229 225 224 231 237 238 237 236 234 234 236 238 240 238 236 232 226 222 221 222 227 228 225 223 223 221 220 220
215 216 215 216 216 218 220 221 220 220 221 222 223 227 229 228 225 228 234 236 236 237 237 237 239 243 244 242 236 230 226 224 222 223 227 227 223 222 222 219 219 221
213 214 214 215 216 217 218 218 219 219 221 222 222 224 227 229 228 227 231 234 235 236 237 237 242 247 247 244 238 231 226 225 223 224 228 227 223 221 221 220 220 220
209 211 213 214 214 215 215 216 218 220 221 223 225 227 228 230 231 229 230 233 235 237 237 236 242 247 247 245 240 233 228 227 227 226 226 225 225 224 222 221 221 221
206 208 209 210 212 214 215 217 221 223 224 226 231 234 234 234 234 232 233 236 238 238 237 236 240 246 249 248 243 235 230 229 229 226 220 218 222 227 226 225 224 224
204 205 206 209 213 217 220 222 223 224 225 228 232 235 235 234 235 236 238 241 240 239 239 239 240 245 249 251 248 240 231 229 229 226 221 215 215 219 224 226 226 226
204 207 210 214 218 221 223 224 223 224 225 224 225 227 229 232 235 238 241 242 242 242 243 241 240 245 250 254 253 243 230 226 228 229 227 224 222 221 223 228 232 231
204 209 213 217 220 222 223 222 218 218 219 218 217 216 216 221 229 231 233 238 242 244 246 245 243 246 251 252 250 240 228 228 232 233 232 231 230 228 228 230 233 232
206 211 215 218 219 216 215 214 208 205 206 207 207 205 203 211 224 224 221 229 236 238 244 246 244 243 247 247 243 235 230 233 238 238 237 236 234 233 232 231 230 227
208 211 210 210 209 204 202 204 200 194 194 194 195 198 198 206 222 228 224 228 230 228 235 242 236 234 239 240 235 231 231 234 239 242 242 240 235 233 232 230 226 221